Location: G�kdere
(37.0328°N, 30.9000°E)
Time: 04:14:46
(UTC+00:00)

Cosmos 1066 Rocket - Pass Details

Date: 03 March 2021
Orbit: 799 x 894 km, 81.2° (Epoch: 20 April)

Event Time Altitude Azimuth Distance (km) Brightness Sun altitude
Rises 17:56:13 0° 354° (N) 3,449 7.6 -25.4°
Reaches altitude 10° 17:58:40 10° 357° (N) 2,521 6.8 -25.8°
Enters shadow 18:03:37 60° 38° (NE) 1,002 4.3 -26.8°
